User: anonymous   Login
Location: Fours
(44.3167°N, 6.7000°E)
Time: 11:46:43
(UTC+00:00)
Language:

H-2A R/B - Orbit

View from above orbital plane
View from above orbital plane
View from above satellite
View from above satellite

Ground track
Ground track

The orbit data is extracted from the following two-line orbital elements,

1 38341U 12025E   22026.12375271  .00000499  00000-0  65319-4 0  9999
2 38341  98.5180 231.8206 0055802 143.2971 217.2084 14.84406620524618
Epoch (UTC): 26 January 2022 02:58:12
Eccentricity: 0.0055802
inclination: 98.5180°
perigee height: 576 km
apogee height: 654 km
right ascension of ascending node: 231.8206°
argument of perigee: 143.2971°
revolutions per day: 14.84406620
mean anomaly at epoch: 217.2084°
orbit number at epoch: 52461

The dashed part of the orbit path shows where the satellite is in the earth's shadow,  

DLR